COSMOS 970 DEB, 10882

Orbit data source: Space-Track

COSMOS 970 DEB, 10882 is space debris in LEO originally from a launch on Wed, 21 Dec 1977 UTC launched from the Tyuratam Missile And Space Complex (TTMTR). Debris objects in space refer to the collection of defunct objects orbiting the Earth. Examples of debris include non-operational satellites, rocket bodies, and fragments generated from explosions, collisions, or faulty payload assembly.

Loading next visibility...
Identifier
10882, 1977-121AD
Orbit
LEO
Country
Flag of CISCIS
Related business
Manufacturer
Unknown
Mission
Spacecraft
Bus & Motor
Unknown
Mass
Unknown
Launch date (UTC)
1977-12-21 (48 years ago)
Launch vehicle
Unknown
Launch site
Tyuratam Missile And Space Complex (TTMTR)
Object type
Payload
Rocket body
Debris
Shape & HBR
Unknown shape, 0.1 m
Radar Cross Section
Medium (>0.1 m² and <1 m²)

Expand to show TLE details & history
Last TLE update: 14 hours ago

TLE from 14 hours ago
0 COSMOS 970 DEB
1 10882U 77121AD  26171.30455987  .00000208  00000-0  27409-3 0  9990
2 10882  65.8249  24.0430 0125353 123.5990 237.7113 13.77500592426821
Epoch: 2026-06-20T07:18Z
TLE epoch observation values (Epoch: 2026-06-20T07:18:33.972Z)
Latitude
-0.00003°
Longitude
5.88033°
Altitude
1,024.799 km
Speed
7.315 km/s
True Right ascension
01h 36m 10s
True Declination
0° 00' 00"
Sunlit
Object was in daylight at epoch
Visualization orbit readout
Latitude
Unknown
Longitude
Unknown
Altitude
Unknown
Speed
Unknown
Apparent Right ascension
Unknown
Apparent Declination
Unknown
Sunlit
N/A
Visualization observer readout
Local Sidereal Time
08:42:08
Azimuth
Unknown
Elevation
Unknown
Doppler factor
Unknown
Orbital elements
Apogee altitude
1,063.408 km
Perigee altitude
879.154 km
Semi-major axis
7,349.418 km
Eccentricity
0.01254
Inclination
65.8249°
RAAN
24.043°
Arg. of periapsis
123.599°
True anomaly
236.50715°
Mean anomaly
237.7113°
Eccentric anomaly
237.10821°
Mean motion
3.4448 °/min
Orbital period
104.51 mins
BSTAR
0.00027409
Loading maneuver chart data...
Computing Atmospheric mass density...
Loading historical data...
Loading historical data...
Loading historical data...
Loading historical data...
Loading historical data...
Loading historical data...
Loading historical data...

Documentation

Showing up to 5 results
|